Location: Newark
(55.7681°N, 37.7103°E)
Time: 05:21:10
(UTC+00:00)

MOZHAYETS 4 - Visible Passes

Search period start: 06 December 2019 00:00
Search period end: 16 December 2019 00:00
Orbit: 663 x 679 km, 98.1° (Epoch: 05 December)

Date Brightness Start Highest point End Pass type
(mag) Time Alt. Az. Time Alt. Az. Time Alt. Az.
06 Dec 10.2 14:37:07 10° NNW 14:39:54 16° NW 14:42:40 10° W visible
07 Dec 10.6 15:12:15 10° NW 15:12:28 10° NW 15:12:41 10° NW visible
08 Dec 9.7 14:05:34 10° N 14:09:18 24° WNW 14:13:00 10° WSW visible
09 Dec 10.2 14:39:17 10° NNW 14:41:59 15° NW 14:44:40 10° W visible
10 Dec 9.0 13:34:15 10° N 13:38:34 39° WNW 13:42:50 10° SW visible
11 Dec 9.7 14:07:42 10° N 14:11:23 24° NW 14:15:01 10° WSW visible
12 Dec 10.2 14:41:28 10° NNW 14:44:04 15° NW 14:46:38 10° W visible
13 Dec 9.0 13:36:23 10° N 13:40:39 37° WNW 13:44:53 10° SW visible
14 Dec 9.8 14:09:51 10° N 14:13:27 23° NW 14:17:03 10° WSW visible
15 Dec 10.2 14:43:39 10° NNW 14:46:08 15° NW 14:48:36 10° W visible
